UAE809 OMDB-OEMA

Flight info

Callsign UAE809
Flight time 2h 15m
Altitude 34000
Route KUTLI L519 ATUDO M318 GOLGU M550 RIBOT/N0499F280 M550 MEVDO/N0493F340 DCT DANOM DCT ASMIS DCT ELONU
Aircraft B77W/H-SDE1E2E3FGHIJ2J3J4J5M1RWXY/LB1D1

Departure

Time 2026-04-15 14:38
Airport Dubai International Airport (OMDB)

Arrival

Time 2026-04-15 16:54
Airport Prince Mohammad Bin Abdulaziz Airport (OEMA)
Time Latitude Longitude Altitude Speed Heading
2026-04-15 14:08 25.24705 55.36230 28 ft 0 kts 31°
2026-04-15 14:21 25.24703 55.36228 29 ft 3 kts 31°
2026-04-15 14:21 25.24680 55.36213 33 ft 4 kts 31°
2026-04-15 14:21 25.24657 55.36197 33 ft 4 kts 25°
2026-04-15 14:22 25.24634 55.36193 31 ft 4 kts 334°
2026-04-15 14:22 25.24614 55.36211 30 ft 4 kts 303°
2026-04-15 14:22 25.24603 55.36231 31 ft 4 kts 301°
2026-04-15 14:22 25.24589 55.36256 31 ft 4 kts 301°
2026-04-15 14:23 25.24585 55.36262 31 ft 0 kts 301°
2026-04-15 14:24 25.24589 55.36257 26 ft 4 kts 301°
2026-04-15 14:25 25.24623 55.36195 27 ft 13 kts 301°
2026-04-15 14:25 25.24673 55.36104 29 ft 15 kts 301°
2026-04-15 14:25 25.24729 55.36002 29 ft 17 kts 301°
2026-04-15 14:25 25.24791 55.35888 30 ft 18 kts 301°
2026-04-15 14:26 25.24834 55.35811 29 ft 0 kts 302°
2026-04-15 14:27 25.24843 55.35796 29 ft 9 kts 303°
2026-04-15 14:27 25.24921 55.35675 29 ft 26 kts 306°
2026-04-15 14:27 25.25032 55.35492 29 ft 28 kts 301°
2026-04-15 14:27 25.25124 55.35322 30 ft 22 kts 293°
2026-04-15 14:28 25.25154 55.35157 31 ft 22 kts 290°
2026-04-15 14:28 25.25231 55.35014 29 ft 22 kts 301°
2026-04-15 14:28 25.25313 55.34876 29 ft 21 kts 312°
2026-04-15 14:28 25.25442 55.34810 31 ft 21 kts
2026-04-15 14:29 25.25575 55.34877 30 ft 20 kts 31°
2026-04-15 14:29 25.25692 55.34955 29 ft 20 kts 31°
2026-04-15 14:29 25.25810 55.35034 29 ft 20 kts 31°
2026-04-15 14:29 25.25928 55.35112 30 ft 20 kts 31°
2026-04-15 14:30 25.26046 55.35191 26 ft 20 kts 32°
2026-04-15 14:30 25.26125 55.35246 27 ft 9 kts 35°
2026-04-15 14:30 25.26134 55.35294 27 ft 7 kts 109°
2026-04-15 14:30 25.26109 55.35343 27 ft 8 kts 122°
2026-04-15 14:31 25.26068 55.35416 27 ft 14 kts 122°
2026-04-15 14:31 25.26003 55.35531 27 ft 21 kts 121°
2026-04-15 14:31 25.25918 55.35684 26 ft 24 kts 122°
2026-04-15 14:31 25.25828 55.35842 27 ft 21 kts 122°
2026-04-15 14:32 25.25752 55.35976 27 ft 21 kts 122°
2026-04-15 14:32 25.25676 55.36111 27 ft 21 kts 121°
2026-04-15 14:32 25.25600 55.36248 27 ft 21 kts 121°
2026-04-15 14:32 25.25524 55.36381 27 ft 21 kts 122°
2026-04-15 14:33 25.25447 55.36517 27 ft 21 kts 122°
2026-04-15 14:33 25.25371 55.36651 26 ft 21 kts 120°
2026-04-15 14:33 25.25297 55.36787 27 ft 21 kts 121°
2026-04-15 14:33 25.25220 55.36920 27 ft 21 kts 123°
2026-04-15 14:34 25.25142 55.37054 28 ft 21 kts 123°
2026-04-15 14:34 25.25068 55.37192 28 ft 21 kts 120°
2026-04-15 14:34 25.24982 55.37347 28 ft 26 kts 122°
2026-04-15 14:34 25.24880 55.37526 28 ft 29 kts 121°
2026-04-15 14:35 25.24790 55.37687 28 ft 23 kts 122°
2026-04-15 14:35 25.24707 55.37835 27 ft 23 kts 122°
2026-04-15 14:35 25.24660 55.37936 27 ft 10 kts 85°
2026-04-15 14:35 25.24681 55.37962 28 ft 0 kts 37°
2026-04-15 14:36 25.24682 55.37962 28 ft 1 kts 37°
2026-04-15 14:36 25.24711 55.37984 28 ft 12 kts 33°
2026-04-15 14:37 25.24783 55.38031 30 ft 9 kts 20°
2026-04-15 14:37 25.24825 55.37991 30 ft 11 kts 302°
2026-04-15 14:37 25.24904 55.37850 31 ft 42 kts 301°
2026-04-15 14:37 25.25208 55.37298 32 ft 123 kts 301°
2026-04-15 14:38 25.25777 55.36293 94 ft 176 kts 301°
2026-04-15 14:38 25.26446 55.35197 902 ft 170 kts 299°
2026-04-15 14:38 25.27058 55.34084 1769 ft 169 kts 300°
2026-04-15 14:38 25.27668 55.32953 2481 ft 176 kts 301°
2026-04-15 14:39 25.28308 55.31782 3247 ft 174 kts 300°
2026-04-15 14:39 25.28940 55.30621 3837 ft 179 kts 296°
2026-04-15 14:39 25.29224 55.29278 4015 ft 186 kts 270°
2026-04-15 14:39 25.28895 55.27888 4033 ft 190 kts 249°
2026-04-15 14:40 25.28313 55.26544 4015 ft 194 kts 249°
2026-04-15 14:40 25.27750 55.25219 4011 ft 191 kts 250°
2026-04-15 14:40 25.27183 55.23885 4005 ft 189 kts 250°
2026-04-15 14:40 25.26619 55.22554 4087 ft 199 kts 250°
2026-04-15 14:41 25.25994 55.21070 4315 ft 230 kts 249°
2026-04-15 14:41 25.25273 55.19365 4741 ft 251 kts 248°
2026-04-15 14:41 25.24520 55.17598 5500 ft 260 kts 248°
2026-04-15 14:41 25.23996 55.16386 6068 ft 264 kts 246°
2026-04-15 14:42 25.23089 55.14582 6885 ft 269 kts 243°
2026-04-15 14:42 25.22146 55.12806 7730 ft 272 kts 243°
2026-04-15 14:42 25.20872 55.10392 8889 ft 275 kts 244°
2026-04-15 14:42 25.20232 55.09168 9467 ft 276 kts 245°
2026-04-15 14:43 25.19402 55.07235 10264 ft 277 kts 251°
2026-04-15 14:43 25.18676 55.05200 10711 ft 298 kts 252°
2026-04-15 14:43 25.17883 55.02960 10907 ft 325 kts 250°
2026-04-15 14:43 25.16620 55.00810 11049 ft 356 kts 226°
2026-04-15 14:44 25.14398 54.99417 11775 ft 375 kts 201°
2026-04-15 14:44 25.11864 54.98785 12682 ft 379 kts 194°
2026-04-15 14:44 25.09271 54.98272 13760 ft 380 kts 194°
2026-04-15 14:44 25.06631 54.97775 14630 ft 384 kts 193°
2026-04-15 14:45 25.04003 54.97278 15459 ft 389 kts 193°
2026-04-15 14:45 25.01311 54.96760 16402 ft 391 kts 193°
2026-04-15 14:45 24.98648 54.96238 17336 ft 394 kts 194°
2026-04-15 14:45 24.95911 54.95695 18222 ft 399 kts 194°
2026-04-15 14:46 24.93183 54.95151 18933 ft 405 kts 193°
2026-04-15 14:46 24.90373 54.94589 19643 ft 410 kts 194°
2026-04-15 14:46 24.87611 54.93846 20342 ft 412 kts 200°
2026-04-15 14:46 24.84892 54.92767 21103 ft 415 kts 204°
2026-04-15 14:47 24.82295 54.91429 21789 ft 418 kts 210°
2026-04-15 14:47 24.79709 54.89866 22448 ft 424 kts 210°
2026-04-15 14:47 24.77102 54.88276 23083 ft 430 kts 210°
2026-04-15 14:47 24.74477 54.86688 23676 ft 435 kts 210°
2026-04-15 14:48 24.71792 54.85081 24249 ft 439 kts 210°
2026-04-15 14:48 24.69112 54.83484 24838 ft 443 kts 210°
2026-04-15 14:48 24.66405 54.81826 25419 ft 446 kts 211°
2026-04-15 14:48 24.63731 54.80113 25973 ft 449 kts 212°
2026-04-15 14:49 24.61005 54.78345 26528 ft 453 kts 212°
2026-04-15 14:49 24.58301 54.76600 27067 ft 457 kts 212°
2026-04-15 14:49 24.55524 54.74823 27566 ft 461 kts 211°
2026-04-15 14:49 24.52762 54.73062 28069 ft 464 kts 211°
2026-04-15 14:50 24.49955 54.71245 28549 ft 468 kts 212°
2026-04-15 14:50 24.47162 54.69421 28995 ft 472 kts 212°
2026-04-15 14:50 24.44306 54.67560 29426 ft 475 kts 212°
2026-04-15 14:50 24.41470 54.65732 29808 ft 479 kts 211°
2026-04-15 14:51 24.38570 54.63899 30247 ft 480 kts 211°
2026-04-15 14:51 24.35675 54.62076 30825 ft 476 kts 211°
2026-04-15 14:51 24.32829 54.60279 31423 ft 473 kts 211°
2026-04-15 14:51 24.29980 54.58477 31968 ft 470 kts 211°
2026-04-15 14:52 24.27171 54.56592 32480 ft 468 kts 216°
2026-04-15 14:52 24.24714 54.54318 33002 ft 465 kts 226°
2026-04-15 14:52 24.22623 54.51603 33579 ft 462 kts 233°
2026-04-15 14:52 24.20849 54.48716 33964 ft 463 kts 239°
2026-04-15 14:53 24.19271 54.45596 33947 ft 469 kts 240°
2026-04-15 14:53 24.16177 54.39375 33947 ft 463 kts 240°
2026-04-15 14:54 24.13079 54.33224 33952 ft 461 kts 240°
2026-04-15 14:54 24.09947 54.27067 33959 ft 460 kts 240°
2026-04-15 14:55 24.06836 54.20971 33959 ft 461 kts 240°
2026-04-15 14:55 24.03704 54.14834 33961 ft 463 kts 240°
2026-04-15 14:56 24.00546 54.08653 33959 ft 464 kts 240°
2026-04-15 14:56 23.97380 54.02537 33961 ft 465 kts 239°
2026-04-15 14:57 23.94139 53.96414 33968 ft 465 kts 240°
2026-04-15 14:57 23.90896 53.90294 33969 ft 467 kts 240°
2026-04-15 14:58 23.87644 53.84146 33969 ft 468 kts 240°
2026-04-15 14:58 23.84394 53.78000 33973 ft 467 kts 240°
2026-04-15 14:59 23.81137 53.71850 33964 ft 468 kts 240°
2026-04-15 14:59 23.77859 53.65668 33971 ft 469 kts 240°
2026-04-15 15:00 23.74588 53.59504 33975 ft 470 kts 240°
2026-04-15 15:00 23.71303 53.53325 33979 ft 470 kts 240°
2026-04-15 15:01 23.68034 53.47169 33976 ft 469 kts 240°
2026-04-15 15:01 23.64792 53.41048 33977 ft 468 kts 240°
2026-04-15 15:02 23.61539 53.34914 33980 ft 467 kts 240°
2026-04-15 15:02 23.58279 53.28775 33981 ft 467 kts 240°
2026-04-15 15:03 23.55029 53.22664 33981 ft 467 kts 240°
2026-04-15 15:03 23.51763 53.16529 33988 ft 468 kts 240°
2026-04-15 15:04 23.48481 53.10373 33988 ft 470 kts 240°
2026-04-15 15:04 23.45212 53.04247 33990 ft 471 kts 240°
2026-04-15 15:05 23.41919 52.98082 33985 ft 472 kts 240°
2026-04-15 15:05 23.38627 52.91841 33993 ft 473 kts 241°
2026-04-15 15:06 23.33829 52.82441 33995 ft 474 kts 242°
2026-04-15 15:06 23.30621 52.76180 33996 ft 475 kts 242°
2026-04-15 15:07 23.27389 52.69902 33998 ft 475 kts 241°
2026-04-15 15:07 23.24184 52.63686 33994 ft 474 kts 241°
2026-04-15 15:08 23.20938 52.57395 34000 ft 474 kts 241°
2026-04-15 15:08 23.17870 52.51091 33995 ft 474 kts 246°
2026-04-15 15:09 23.15689 52.44341 34005 ft 473 kts 252°
2026-04-15 15:09 23.13594 52.37591 34001 ft 473 kts 251°
2026-04-15 15:10 23.11419 52.30807 34001 ft 474 kts 251°
2026-04-15 15:10 23.09266 52.24099 34012 ft 472 kts 251°
2026-04-15 15:11 23.07116 52.17391 34002 ft 469 kts 251°
2026-04-15 15:11 23.04964 52.10675 33999 ft 467 kts 251°
2026-04-15 15:12 23.02842 52.04064 34003 ft 465 kts 251°
2026-04-15 15:12 23.00716 51.97449 34003 ft 464 kts 251°
2026-04-15 15:13 22.98602 51.90844 34005 ft 463 kts 251°
2026-04-15 15:13 22.96479 51.84216 34007 ft 463 kts 251°
2026-04-15 15:14 22.94374 51.77655 34011 ft 463 kts 251°
2026-04-15 15:14 22.92240 51.71014 34008 ft 464 kts 251°
2026-04-15 15:15 22.90123 51.64439 34011 ft 464 kts 251°
2026-04-15 15:15 22.87992 51.57830 34011 ft 464 kts 251°
2026-04-15 15:16 22.85857 51.51217 34012 ft 465 kts 252°
2026-04-15 15:16 22.83917 51.44548 34014 ft 464 kts 258°
2026-04-15 15:17 22.82738 51.37685 34023 ft 464 kts 260°
2026-04-15 15:17 22.81570 51.30813 34019 ft 464 kts 261°
2026-04-15 15:18 22.80371 51.23948 34017 ft 464 kts 260°
2026-04-15 15:18 22.79163 51.17094 34020 ft 463 kts 260°
2026-04-15 15:19 22.77952 51.10243 34021 ft 463 kts 260°
2026-04-15 15:19 22.76718 51.03364 34015 ft 463 kts 260°
2026-04-15 15:20 22.75484 50.96526 34018 ft 463 kts 260°
2026-04-15 15:20 22.74253 50.89708 34018 ft 463 kts 260°
2026-04-15 15:21 22.73019 50.82889 34024 ft 462 kts 261°
2026-04-15 15:21 22.71782 50.76060 34019 ft 462 kts 261°
2026-04-15 15:22 22.70536 50.69200 34024 ft 461 kts 261°
2026-04-15 15:22 22.69296 50.62396 34023 ft 461 kts 261°
2026-04-15 15:23 22.68055 50.55598 34026 ft 460 kts 261°
2026-04-15 15:23 22.66816 50.48826 34028 ft 460 kts 261°
2026-04-15 15:24 22.65569 50.42031 34018 ft 460 kts 261°
2026-04-15 15:24 22.64318 50.35229 34023 ft 459 kts 262°
2026-04-15 15:25 22.63070 50.28464 34027 ft 459 kts 262°
2026-04-15 15:25 22.61815 50.21673 34029 ft 460 kts 262°
2026-04-15 15:26 22.60558 50.14891 34022 ft 460 kts 262°
2026-04-15 15:26 22.59298 50.08110 34028 ft 461 kts 262°
2026-04-15 15:27 22.58246 50.02458 34028 ft 461 kts 262°
2026-04-15 15:27 22.56969 49.95613 34024 ft 462 kts 262°
2026-04-15 15:28 22.55700 49.88829 34029 ft 462 kts 262°
2026-04-15 15:28 22.54429 49.82029 34030 ft 462 kts 263°
2026-04-15 15:29 22.53852 49.75163 34041 ft 457 kts 272°
2026-04-15 15:29 22.54265 49.68339 34053 ft 453 kts 279°
2026-04-15 15:30 22.54944 49.61561 34030 ft 453 kts 279°
2026-04-15 15:30 22.55615 49.54755 34035 ft 453 kts 279°
2026-04-15 15:31 22.56264 49.47971 34030 ft 454 kts 278°
2026-04-15 15:31 22.56899 49.41222 34033 ft 454 kts 279°
2026-04-15 15:32 22.57532 49.34430 34032 ft 454 kts 279°
2026-04-15 15:32 22.58164 49.27629 34029 ft 454 kts 278°
2026-04-15 15:33 22.58792 49.20847 34036 ft 453 kts 278°
2026-04-15 15:33 22.59418 49.14060 34032 ft 453 kts 278°
2026-04-15 15:34 22.60038 49.07293 34022 ft 453 kts 278°
2026-04-15 15:34 22.60657 49.00518 34040 ft 453 kts 278°
2026-04-15 15:35 22.61276 48.93703 34040 ft 453 kts 278°
2026-04-15 15:35 22.61888 48.86930 34039 ft 452 kts 278°
2026-04-15 15:36 22.62498 48.80153 34039 ft 453 kts 278°
2026-04-15 15:36 22.63106 48.73376 34036 ft 453 kts 278°
2026-04-15 15:37 22.63711 48.66595 34038 ft 454 kts 278°
2026-04-15 15:37 22.64314 48.59795 34045 ft 454 kts 278°
2026-04-15 15:38 22.64914 48.52990 34038 ft 454 kts 278°
2026-04-15 15:38 22.65512 48.46191 34037 ft 454 kts 278°
2026-04-15 15:39 22.66106 48.39391 34028 ft 453 kts 278°
2026-04-15 15:39 22.66697 48.32596 34034 ft 453 kts 278°
2026-04-15 15:40 22.67286 48.25803 34036 ft 453 kts 278°
2026-04-15 15:40 22.67872 48.18998 34029 ft 454 kts 278°
2026-04-15 15:41 22.68455 48.12204 34038 ft 455 kts 278°
2026-04-15 15:41 22.69036 48.05383 34035 ft 456 kts 278°
2026-04-15 15:42 22.69620 47.98513 34029 ft 456 kts 278°
2026-04-15 15:42 22.70197 47.91674 34034 ft 456 kts 278°
2026-04-15 15:43 22.70770 47.84850 34035 ft 456 kts 278°
2026-04-15 15:43 22.71340 47.78024 34031 ft 455 kts 278°
2026-04-15 15:44 22.71907 47.71197 34038 ft 454 kts 278°
2026-04-15 15:44 22.72470 47.64391 34045 ft 453 kts 278°
2026-04-15 15:45 22.73029 47.57599 34034 ft 453 kts 277°
2026-04-15 15:45 22.73585 47.50810 34043 ft 452 kts 277°
2026-04-15 15:46 22.74135 47.44044 34044 ft 452 kts 277°
2026-04-15 15:46 22.74686 47.37254 34037 ft 451 kts 277°
2026-04-15 15:47 22.75229 47.30509 34045 ft 450 kts 277°
2026-04-15 15:47 22.75771 47.23736 34048 ft 450 kts 277°
2026-04-15 15:48 22.76308 47.17008 34042 ft 449 kts 277°
2026-04-15 15:48 22.76844 47.10239 34046 ft 449 kts 277°
2026-04-15 15:49 22.77371 47.03553 34057 ft 448 kts 277°
2026-04-15 15:49 22.77903 46.96778 34042 ft 449 kts 277°
2026-04-15 15:50 22.78427 46.90053 34049 ft 448 kts 277°
2026-04-15 15:50 22.78948 46.83343 34047 ft 448 kts 277°
2026-04-15 15:51 22.79466 46.76625 34050 ft 447 kts 277°
2026-04-15 15:51 22.79981 46.69916 34046 ft 447 kts 277°
2026-04-15 15:52 22.80495 46.63176 34052 ft 447 kts 277°
2026-04-15 15:52 22.81003 46.56486 34049 ft 447 kts 277°
2026-04-15 15:53 22.81509 46.49775 34059 ft 447 kts 277°
2026-04-15 15:53 22.82013 46.43059 34056 ft 447 kts 277°
2026-04-15 15:54 22.82517 46.36303 34045 ft 447 kts 277°
2026-04-15 15:54 22.83014 46.29612 34050 ft 446 kts 277°
2026-04-15 15:55 22.83505 46.22925 34047 ft 446 kts 277°
2026-04-15 15:55 22.83998 46.16218 34034 ft 446 kts 277°
2026-04-15 15:56 22.84483 46.09546 34043 ft 445 kts 277°
2026-04-15 15:56 22.84967 46.02875 34031 ft 443 kts 277°
2026-04-15 15:57 22.85450 45.96187 34031 ft 442 kts 277°
2026-04-15 15:57 22.85925 45.89555 34037 ft 442 kts 277°
2026-04-15 15:58 22.86398 45.82923 34036 ft 442 kts 277°
2026-04-15 15:58 22.86869 45.76267 34025 ft 443 kts 277°
2026-04-15 15:59 22.87338 45.69609 34035 ft 443 kts 277°
2026-04-15 15:59 22.87806 45.62919 34241 ft 448 kts 277°
2026-04-15 16:00 22.88038 45.59581 34705 ft 444 kts 277°
2026-04-15 16:00 22.88191 45.57359 35075 ft 440 kts 277°
2026-04-15 16:00 22.88493 45.52970 35861 ft 432 kts 278°
2026-04-15 16:00 22.88716 45.49738 36041 ft 433 kts 278°
2026-04-15 16:01 22.89163 45.43254 36032 ft 430 kts 278°
2026-04-15 16:01 22.89604 45.36805 36051 ft 428 kts 278°
2026-04-15 16:02 22.90043 45.30354 36043 ft 429 kts 277°
2026-04-15 16:02 22.90479 45.23903 36053 ft 430 kts 277°
2026-04-15 16:03 22.90912 45.17439 36043 ft 430 kts 277°
2026-04-15 16:03 22.91343 45.10977 36052 ft 430 kts 277°
2026-04-15 16:04 22.91770 45.04525 36044 ft 430 kts 277°
2026-04-15 16:04 22.92197 44.98049 36037 ft 429 kts 277°
2026-04-15 16:05 22.92618 44.91624 36046 ft 428 kts 277°
2026-04-15 16:05 22.93037 44.85182 36058 ft 428 kts 277°
2026-04-15 16:06 22.93456 44.78711 36048 ft 427 kts 277°
2026-04-15 16:06 22.93869 44.72289 36041 ft 427 kts 277°
2026-04-15 16:07 22.94723 44.65946 36055 ft 424 kts 285°
2026-04-15 16:08 22.97335 44.56838 36054 ft 422 kts 290°
2026-04-15 16:08 22.99226 44.50785 36056 ft 423 kts 290°
2026-04-15 16:09 23.01097 44.44750 36053 ft 423 kts 290°
2026-04-15 16:09 23.02968 44.38677 36052 ft 423 kts 290°
2026-04-15 16:10 23.04828 44.32621 36034 ft 424 kts 290°
2026-04-15 16:10 23.06693 44.26542 36054 ft 424 kts 290°
2026-04-15 16:11 23.08558 44.20448 36049 ft 424 kts 290°
2026-04-15 16:11 23.10412 44.14383 36029 ft 424 kts 290°
2026-04-15 16:12 23.11954 44.09333 36051 ft 424 kts 290°
2026-04-15 16:12 23.14117 44.02238 36040 ft 424 kts 289°
2026-04-15 16:13 23.15659 43.97172 36042 ft 424 kts 289°
2026-04-15 16:13 23.17508 43.91091 36045 ft 424 kts 289°
2026-04-15 16:14 23.19357 43.84998 36041 ft 424 kts 289°
2026-04-15 16:14 23.21205 43.78899 36039 ft 424 kts 289°
2026-04-15 16:15 23.23046 43.72814 36037 ft 424 kts 289°
2026-04-15 16:15 23.24888 43.66714 36043 ft 425 kts 289°
2026-04-15 16:16 23.26727 43.60619 36037 ft 425 kts 289°
2026-04-15 16:16 23.28571 43.54495 36042 ft 426 kts 289°
2026-04-15 16:17 23.30405 43.48393 36041 ft 427 kts 289°
2026-04-15 16:17 23.32250 43.42248 36039 ft 427 kts 288°
2026-04-15 16:18 23.34095 43.36093 36039 ft 428 kts 288°
2026-04-15 16:18 23.35939 43.29932 36047 ft 428 kts 288°
2026-04-15 16:19 23.37781 43.23765 36045 ft 429 kts 288°
2026-04-15 16:19 23.39625 43.17583 36046 ft 429 kts 288°
2026-04-15 16:20 23.41460 43.11421 36048 ft 430 kts 288°
2026-04-15 16:20 23.43300 43.05235 36048 ft 430 kts 288°
2026-04-15 16:21 23.45137 42.99042 36053 ft 429 kts 288°
2026-04-15 16:21 23.46973 42.92850 36045 ft 428 kts 288°
2026-04-15 16:22 23.48794 42.86698 36046 ft 426 kts 288°
2026-04-15 16:22 23.50602 42.80578 36044 ft 425 kts 288°
2026-04-15 16:23 23.52411 42.74446 36040 ft 425 kts 288°
2026-04-15 16:23 23.54221 42.68300 36035 ft 425 kts 288°
2026-04-15 16:24 23.56027 42.62161 36036 ft 425 kts 288°
2026-04-15 16:24 23.57826 42.56029 36032 ft 426 kts 288°
2026-04-15 16:25 23.59623 42.49895 36025 ft 426 kts 288°
2026-04-15 16:25 23.61429 42.43724 36022 ft 427 kts 288°
2026-04-15 16:26 23.63236 42.37540 36023 ft 428 kts 288°
2026-04-15 16:26 23.65036 42.31367 36023 ft 428 kts 288°
2026-04-15 16:27 23.66841 42.25168 36018 ft 429 kts 288°
2026-04-15 16:27 23.68640 42.18977 36019 ft 429 kts 288°
2026-04-15 16:28 23.70442 42.12771 36020 ft 429 kts 288°
2026-04-15 16:28 23.72242 42.06558 36016 ft 429 kts 288°
2026-04-15 16:29 23.74036 42.00355 36015 ft 429 kts 288°
2026-04-15 16:29 23.75830 41.94142 36015 ft 429 kts 287°
2026-04-15 16:30 23.77621 41.87929 36016 ft 429 kts 287°
2026-04-15 16:30 23.79408 41.81720 36016 ft 429 kts 287°
2026-04-15 16:31 23.81192 41.75513 36010 ft 429 kts 287°
2026-04-15 16:31 23.82973 41.69303 36016 ft 430 kts 287°
2026-04-15 16:32 23.84758 41.63070 36019 ft 430 kts 287°
2026-04-15 16:32 23.86542 41.56831 36020 ft 431 kts 287°
2026-04-15 16:33 23.88331 41.50564 36020 ft 431 kts 287°
2026-04-15 16:33 23.90115 41.44302 36020 ft 432 kts 287°
2026-04-15 16:34 23.91896 41.38038 36018 ft 432 kts 287°
2026-04-15 16:34 23.93679 41.31763 36021 ft 433 kts 287°
2026-04-15 16:35 23.95455 41.25498 36014 ft 433 kts 287°
2026-04-15 16:35 23.96358 41.22306 35541 ft 441 kts 287°
2026-04-15 16:35 23.97268 41.19088 34678 ft 448 kts 287°
2026-04-15 16:35 23.98185 41.15847 33724 ft 450 kts 286°
2026-04-15 16:36 23.99118 41.12540 32654 ft 453 kts 286°
2026-04-15 16:36 24.00047 41.09246 31601 ft 456 kts 286°
2026-04-15 16:36 24.00977 41.05949 30732 ft 456 kts 285°
2026-04-15 16:36 24.01912 41.02628 29958 ft 454 kts 285°
2026-04-15 16:37 24.02843 40.99322 29098 ft 451 kts 285°
2026-04-15 16:37 24.03760 40.96059 28343 ft 448 kts 285°
2026-04-15 16:37 24.04668 40.92827 27619 ft 444 kts 285°
2026-04-15 16:37 24.05572 40.89603 26919 ft 441 kts 286°
2026-04-15 16:38 24.06465 40.86419 26243 ft 437 kts 285°
2026-04-15 16:38 24.07347 40.83270 25564 ft 434 kts 285°
2026-04-15 16:38 24.08235 40.80097 24902 ft 432 kts 285°
2026-04-15 16:38 24.09116 40.76945 24223 ft 430 kts 285°
2026-04-15 16:39 24.09985 40.73835 23545 ft 429 kts 285°
2026-04-15 16:39 24.10848 40.70742 22784 ft 427 kts 285°
2026-04-15 16:39 24.11718 40.67620 22087 ft 424 kts 285°
2026-04-15 16:39 24.12569 40.64565 21435 ft 420 kts 285°
2026-04-15 16:40 24.13423 40.61500 20782 ft 417 kts 285°
2026-04-15 16:40 24.14258 40.58497 20160 ft 413 kts 285°
2026-04-15 16:40 24.15097 40.55480 19531 ft 411 kts 285°
2026-04-15 16:40 24.15817 40.52490 18907 ft 408 kts 280°
2026-04-15 16:41 24.16272 40.49405 18275 ft 408 kts 275°
2026-04-15 16:41 24.16442 40.46304 17609 ft 411 kts 271°
2026-04-15 16:41 24.16538 40.43191 17130 ft 409 kts 271°
2026-04-15 16:41 24.16636 40.40101 16638 ft 403 kts 271°
2026-04-15 16:42 24.16736 40.37063 16066 ft 398 kts 271°
2026-04-15 16:42 24.16838 40.34077 15552 ft 392 kts 271°
2026-04-15 16:42 24.16943 40.31071 15030 ft 387 kts 271°
2026-04-15 16:42 24.17045 40.28173 14595 ft 380 kts 271°
2026-04-15 16:43 24.17145 40.25332 14304 ft 364 kts 270°
2026-04-15 16:43 24.17241 40.22615 14238 ft 355 kts 270°
2026-04-15 16:43 24.17336 40.19917 14198 ft 350 kts 270°
2026-04-15 16:43 24.17427 40.17295 14167 ft 344 kts 270°
2026-04-15 16:44 24.17517 40.14680 14136 ft 339 kts 270°
2026-04-15 16:44 24.17604 40.12147 14083 ft 334 kts 270°
2026-04-15 16:44 24.17691 40.09582 13754 ft 336 kts 270°
2026-04-15 16:44 24.17778 40.07016 13205 ft 333 kts 270°
2026-04-15 16:45 24.17864 40.04541 12592 ft 318 kts 270°
2026-04-15 16:45 24.17945 40.02191 11993 ft 302 kts 270°
2026-04-15 16:45 24.18021 39.99885 11476 ft 307 kts 270°
2026-04-15 16:45 24.18098 39.97539 10936 ft 313 kts 270°
2026-04-15 16:46 24.18177 39.95126 10415 ft 317 kts 270°
2026-04-15 16:46 24.18257 39.92715 9876 ft 321 kts 270°
2026-04-15 16:46 24.18339 39.90247 9307 ft 324 kts 269°
2026-04-15 16:46 24.18420 39.87780 8739 ft 325 kts 269°
2026-04-15 16:47 24.18500 39.85370 8171 ft 312 kts 270°
2026-04-15 16:47 24.18580 39.83023 7589 ft 301 kts 269°
2026-04-15 16:47 24.18976 39.80833 7031 ft 296 kts 292°
2026-04-15 16:47 24.20204 39.79091 6563 ft 282 kts 323°
2026-04-15 16:48 24.21873 39.78187 6387 ft 259 kts 340°
2026-04-15 16:48 24.23541 39.77633 6313 ft 241 kts 345°
2026-04-15 16:48 24.25146 39.77237 6301 ft 230 kts 348°
2026-04-15 16:48 24.26771 39.76884 6328 ft 252 kts 348°
2026-04-15 16:49 24.28528 39.76511 6294 ft 261 kts 351°
2026-04-15 16:49 24.30338 39.76131 5962 ft 267 kts 352°
2026-04-15 16:49 24.32188 39.75742 5483 ft 276 kts 352°
2026-04-15 16:49 24.34113 39.75334 5023 ft 283 kts 352°
2026-04-15 16:50 24.36045 39.74924 4661 ft 283 kts 352°
2026-04-15 16:50 24.37964 39.74512 4509 ft 276 kts 353°
2026-04-15 16:50 24.39790 39.74124 4484 ft 262 kts 353°
2026-04-15 16:50 24.41504 39.73758 4451 ft 237 kts 353°
2026-04-15 16:51 24.43077 39.73424 4189 ft 222 kts 354°
2026-04-15 16:51 24.44533 39.73115 3897 ft 208 kts 353°
2026-04-15 16:51 24.45883 39.72828 3639 ft 191 kts 354°
2026-04-15 16:51 24.47129 39.72563 3395 ft 173 kts 354°
2026-04-15 16:52 24.48244 39.72323 3188 ft 154 kts 355°
2026-04-15 16:52 24.49299 39.72105 3026 ft 155 kts 354°
2026-04-15 16:52 24.50330 39.71885 2822 ft 149 kts 355°
2026-04-15 16:52 24.51314 39.71661 2553 ft 141 kts 350°
2026-04-15 16:53 24.52257 39.71457 2398 ft 135 kts 352°
2026-04-15 16:53 24.53210 39.71266 2248 ft 143 kts 353°
2026-04-15 16:53 24.54169 39.71061 2090 ft 141 kts 351°
2026-04-15 16:53 24.55039 39.70887 2093 ft 107 kts 352°
2026-04-15 16:54 24.55565 39.70774 2099 ft 44 kts 348°
2026-04-15 16:54 24.55842 39.70715 2106 ft 37 kts 349°
2026-04-15 16:54 24.56068 39.70686 2112 ft 30 kts
2026-04-15 16:54 24.56239 39.70729 2117 ft 13 kts 21°
2026-04-15 16:55 24.56279 39.70784 2119 ft 8 kts 85°
2026-04-15 16:55 24.56245 39.70816 2118 ft 8 kts 157°
2026-04-15 16:55 24.56187 39.70833 2116 ft 10 kts 166°
2026-04-15 16:55 24.56112 39.70853 2114 ft 12 kts 167°
2026-04-15 16:56 24.56033 39.70868 2113 ft 10 kts 169°
2026-04-15 16:56 24.56001 39.70926 2113 ft 11 kts 76°
2026-04-15 16:56 24.56015 39.71005 2114 ft 11 kts 81°
2026-04-15 16:56 24.55989 39.71072 2114 ft 11 kts 160°
2026-04-15 16:57 24.55908 39.71089 2112 ft 13 kts 169°
2026-04-15 16:57 24.55813 39.71110 2110 ft 15 kts 169°
2026-04-15 16:57 24.55733 39.71142 2108 ft 9 kts 114°
2026-04-15 16:57 24.55740 39.71208 2109 ft 8 kts 80°
2026-04-15 16:58 24.55745 39.71236 2109 ft 0 kts 79°